Flag for Canada Weather past 2 weeks in Montreal, Quebec, Canada

25 °F

Passing clouds.

Feels Like: 14 °F
Forecast: 24 / 32 °F
Wind: 12 mph from West

Location: Montreal - Pierre Elliot Trudeau International Aiport

Current Time: Nov 29, 2015 at 1:08:09 AM

Latest Report: Nov 29, 2015 at 12:00 AM

Visibility: 15 mi

Pressure: 30.29 "Hg

Humidity: 86%

Dew point: 21 °F

Location of MontrealLocation

Historic Weather in Montreal — Graph


Montreal temperature yesterday

Maximum temperature yesterday: 34 °F (at 12:00 AM)
Minimum temperature yesterday: 25 °F (at 10:00 PM)
Average temperature yesterday: 30 °F

Past Weeks' High & Low Weather Summary

High57 °F (Nov 27, 12:00 PM)100% (Nov 19, 10:00 PM)30.75 "Hg (Nov 19, 10:00 PM)
Low18 °F (Nov 25, 6:00 AM)32% (Nov 23, 4:00 PM)29.56 "Hg (Nov 13, 11:00 PM)
Average37 °F71%30.22 "Hg
* Reported Nov 13 11:00 PM — Nov 28 11:00 PM, Montreal, Weather by CustomWeather, © 2015

Note: Actual official high and low records may vary slightly from our data, if they occured in-between our weather recording intervals... More about our weather records


Montreal weather history for previous 24 hours

Time TempWeatherWind HumidityBarometerVisibility
11:00 PM
Sat, Nov 28
25 °FPassing clouds.12 mph86%30.29 "Hg15 mi
10:00 PM25 °FPassing clouds.9 mph86%30.31 "Hg15 mi
9:00 PM27 °FPassing clouds.9 mph80%30.30 "Hg15 mi
8:00 PM28 °FPassing clouds.10 mph80%30.30 "Hg15 mi
7:00 PM28 °FPassing clouds.9 mph74%30.29 "Hg15 mi
6:00 PM30 °FPassing clouds.9 mph75%30.28 "Hg15 mi
5:00 PM30 °FPassing clouds.10 mph75%30.26 "Hg15 mi
4:00 PM32 °FPartly sunny.9 mph75%30.28 "Hg15 mi
3:00 PM32 °FPartly sunny.13 mph69%30.28 "Hg15 mi
2:00 PM32 °FOvercast.8 mph69%30.27 "Hg15 mi
1:00 PM32 °FOvercast.6 mph69%30.29 "Hg15 mi
12:00 PM30 °FOvercast.3 mph75%30.31 "Hg15 mi
11:00 AM28 °FOvercast.5 mph74%30.34 "Hg15 mi
10:00 AM30 °FOvercast.8 mph69%30.35 "Hg15 mi
9:00 AM28 °FOvercast.8 mph80%30.37 "Hg15 mi
8:00 AM28 °FPartly sunny.8 mph80%30.34 "Hg15 mi
7:00 AM30 °FPassing clouds.8 mph75%30.34 "Hg15 mi
6:00 AM30 °FOvercast.8 mph75%30.34 "Hg15 mi
5:00 AM32 °FOvercast.10 mph69%30.33 "Hg15 mi
4:00 AM32 °FOvercast.10 mph75%30.33 "Hg15 mi
3:00 AM32 °FPassing clouds.9 mph80%30.31 "Hg15 mi
2:00 AM34 °FPassing clouds.8 mph81%30.30 "Hg15 mi
1:00 AM34 °FLow clouds.8 mph81%30.29 "Hg15 mi
Weather by CustomWeather, © 2015

See weather overviewHow to use our weather pages